Location: Drocourt
(49.0571°N, 1.7669°E)
Time: 05:18:58
(UTC+00:00)

Cosmos 1745 Rocket - Pass Details

Date: 09 February 2023
Orbit: 952 x 998 km, 83.0° (Epoch: 30 March)

Event Time Altitude Azimuth Distance (km) Brightness Sun altitude
Rises 18:14:13 0° 351° (N) 3,688 7.0 -12.1°
Reaches altitude 10° 18:16:45 10° 352° (N) 2,729 6.4 -12.5°
Maximum altitude 18:23:01 81° 81° (E) 982 3.9 -13.5°
Drops below altitude 10° 18:29:10 10° 168° (SSE) 2,682 6.2 -14.5°
Sets 18:31:39 0° 170° (S) 3,620 6.9 -14.9°
